This is the latest recevied weather packets stored in our database for station/object WA1DLZ. If no packets are shown the sender has not sent any weather packets the latest 10 day(s).
| Time | Temp. | Humidity | Pressure | Rain* | Wind** | Luminosity | Snow |
|---|---|---|---|---|---|---|---|
| 1777700704 | -0.56° C | 89% | 1011.5 hPa | 0 mm | - | - | - |
| 1777697405 | 0° C | 88% | 1011.4 hPa | 0 mm | - | - | - |
| 1777694703 | 0.56° C | 86% | 1011.1 hPa | 0 mm | - | - | - |
| 1777693202 | 0.56° C | 84% | 1011 hPa | 0 mm | - | - | - |
| 1777692603 | 1.11° C | 83% | 1010.9 hPa | 0 mm | - | - | - |
| 1777691703 | 1.11° C | 83% | 1010.8 hPa | 0 mm | - | - | - |
| 1777689303 | 2.22° C | 78% | 1010.8 hPa | 0 mm | - | - | - |
| 1777688703 | 2.78° C | 78% | 1010.9 hPa | 0 mm | - | - | - |
| 1777686903 | 3.89° C | 73% | 1010.8 hPa | 0 mm | - | - | - |
| 1777685703 | 5° C | 66% | 1010.8 hPa | 0 mm | - | - | - |
| 1777683903 | 6.67° C | 56% | 1010.4 hPa | 0 mm | - | - | - |
| 1777683303 | 7.22° C | 55% | 1010.4 hPa | 0 mm | - | - | - |
| 1777682703 | 7.78° C | 53% | 1010.3 hPa | 0 mm | - | - | - |
| 1777681203 | 8.89° C | 48% | 1009.9 hPa | 0 mm | - | - | - |
| 1777680603 | 9.44° C | 46% | 1009.6 hPa | 0 mm | - | - | - |
| 1777678503 | 10.56° C | 42% | 1009 hPa | 0 mm | - | - | - |
| 1777677903 | 10.56° C | 42% | 1008.8 hPa | 0 mm | - | - | - |
| 1777675503 | 12.78° C | 39% | 1008.1 hPa | 0 mm | - | - | - |
| 1777672803 | 13.89° C | 37% | 1007.6 hPa | 0 mm | - | - | - |
| 1777672203 | 14.44° C | 37% | 1007.5 hPa | 0 mm | - | - | - |
| 1777671303 | 14.44° C | 36% | 1007.3 hPa | 0 mm | - | - | - |
| 1777669203 | 15° C | 35% | 1006.9 hPa | 0 mm | - | - | - |
| 1777668303 | 15.56° C | 38% | 1006.8 hPa | 0 mm | - | - | - |
| 1777668003 | 15.56° C | 38% | 1006.8 hPa | 0 mm | - | - | - |
| 1777665303 | 15° C | 38% | 1006.4 hPa | 0 mm | - | - | - |
* Rain latest hour (hover to see other rain measurements)
** Current wind speed in m/s (hover to see current wind gust speed)